,,PA_Meas_PMT16A,,PR_Meas_QMR101_102,,RH_Meas_QMH101,,SR_Meas_QMS101,,TA_Meas_QMH101,,GenWind,,GenWind,
time,status,PA,status,PR,status,RH,status,SR,status,TA,status,DirAvg,status,SpdAvg,
2010-10-25, 00:00:04,VALID,917.583,VALID,0,VALID,96.5048,VALID,0,VALID,20.1498,VALID,281,VALID,1.69687,
2010-10-25, 00:01:04,VALID,917.563,VALID,0,VALID,96.4896,VALID,0,VALID,20.0718,VALID,251,VALID,2.91055,
2010-10-25, 00:02:04,VALID,917.564,VALID,0,VALID,96.4362,VALID,0,VALID,19.9743,VALID,232,VALID,2.0293,
2010-10-25, 00:03:04,VALID,917.559,VALID,0,VALID,96.5811,VALID,0,VALID,19.9548,VALID,261,VALID,2.68164,
2010-10-25, 00:04:04,VALID,917.557,VALID,0,VALID,96.5429,VALID,0,VALID,19.8573,VALID,263,VALID,2.00625,
2010-10-25, 00:05:04,VALID,917.525,VALID,0,VALID,96.5887,VALID,0,VALID,19.8183,VALID,260,VALID,1.72812,
2010-10-25, 00:06:04,VALID,917.516,VALID,0,VALID,96.6039,VALID,0,VALID,19.7598,VALID,256,VALID,2.04336,
2010-10-25, 00:07:04,VALID,917.5,VALID,0,VALID,96.6954,VALID,0,VALID,19.7598,VALID,246,VALID,1.70859,
2010-10-25, 00:08:04,VALID,917.482,VALID,0,VALID,96.703,VALID,0,VALID,19.7403,VALID,258,VALID,1.26719,
2010-10-25, 00:09:04,VALID,917.473,VALID,0,VALID,96.8098,VALID,0,VALID,19.7793,VALID,293,VALID,0.907422,
2010-10-25, 00:10:04,VALID,917.481,VALID,0,VALID,96.8326,VALID,0,VALID,19.7793,VALID,322,VALID,0.772266,
2010-10-25, 00:11:04,VALID,917.469,VALID,0,VALID,96.8707,VALID,0,VALID,19.7988,VALID,322,VALID,0,
2010-10-25, 00:12:04,VALID,917.447,VALID,0,VALID,96.9394,VALID,0,VALID,19.8168,VALID,322,VALID,0.592969,
2010-10-25, 00:13:04,VALID,917.457,VALID,0,VALID,96.9546,VALID,0,VALID,19.8573,VALID,322,VALID,0.574609,
2010-10-25, 00:14:04,VALID,917.45,VALID,0,VALID,96.9775,VALID,0,VALID,19.8963,VALID,322,VALID,0.0359375,
2010-10-25, 00:15:04,VALID,917.473,VALID,0,VALID,97.008,VALID,0,VALID,19.9353,VALID,322,VALID,0.442969,
2010-10-25, 00:16:04,VALID,917.444,VALID,0,VALID,96.9775,VALID,0,VALID,19.9353,VALID,322,VALID,0.0769531,
2010-10-25, 00:17:04,VALID,917.455,VALID,0,VALID,97.0461,VALID,0,VALID,19.9938,VALID,322,VALID,0.0015625,
2010-10-25, 00:18:04,VALID,917.468,VALID,0,VALID,97.0308,VALID,0,VALID,20.0133,VALID,322,VALID,0.217578,
2010-10-25, 00:19:04,VALID,917.42,VALID,0,VALID,97.0308,VALID,0,VALID,20.0328,VALID,322,VALID,0,
2010-10-25, 00:20:04,VALID,917.407,VALID,0,VALID,97.0308,VALID,0,VALID,20.0523,VALID,322,VALID,0.225391,
2010-10-25, 00:21:04,VALID,917.424,VALID,0,VALID,97.0308,VALID,0.107441,VALID,20.0523,VALID,322,VALID,0.241406,
2010-10-25, 00:22:04,VALID,917.43,VALID,0,VALID,96.9622,VALID,0,VALID,19.9938,VALID,322,VALID,0.285156,
2010-10-25, 00:23:04,VALID,917.41,VALID,0,VALID,96.9851,VALID,0,VALID,19.9938,VALID,322,VALID,0.695313,
2010-10-25, 00:24:04,VALID,917.386,VALID,0,VALID,96.9775,VALID,0,VALID,19.9938,VALID,218,VALID,0.598047,
2010-10-25, 00:25:04,VALID,917.355,VALID,0,VALID,97.0461,VALID,0,VALID,19.9938,VALID,218,VALID,0.707422,
2010-10-25, 00:26:04,VALID,917.36,VALID,0,VALID,97.0308,VALID,0,VALID,20.0328,VALID,218,VALID,0.902344,
2010-10-25, 00:27:04,VALID,917.386,VALID,0,VALID,96.9927,VALID,0,VALID,19.9743,VALID,218,VALID,0.7875,
2010-10-25, 00:28:04,VALID,917.398,VALID,0,VALID,97.0232,VALID,0,VALID,19.9953,VALID,218,VALID,0.694141,
2010-10-25, 00:29:04,VALID,917.403,VALID,0,VALID,97.0537,VALID,0,VALID,19.9938,VALID,218,VALID,0.6375,
2010-10-25, 00:30:04,VALID,917.378,VALID,0,VALID,97.0461,VALID,0,VALID,20.0133,VALID,219,VALID,0.526563,
2010-10-25, 00:31:04,VALID,917.391,VALID,0,VALID,97.008,VALID,0,VALID,20.0148,VALID,218,VALID,0.8875,
2010-10-25, 00:32:04,VALID,917.384,VALID,0,VALID,97.0613,VALID,0,VALID,20.0133,VALID,218,VALID,1.13359,
2010-10-25, 00:33:04,VALID,917.387,VALID,0,VALID,97.0232,VALID,0,VALID,20.0328,VALID,10,VALID,0.639453,
2010-10-25, 00:34:04,VALID,917.401,VALID,0,VALID,97.0766,VALID,0,VALID,20.0718,VALID,9,VALID,0.346094,
2010-10-25, 00:35:04,VALID,917.379,VALID,0,VALID,97.0537,VALID,0,VALID,20.0523,VALID,9,VALID,0.423828,
2010-10-25, 00:36:04,VALID,917.386,VALID,0,VALID,97.0308,VALID,0,VALID,19.9953,VALID,9,VALID,0.739453,
2010-10-25, 00:37:04,VALID,917.363,VALID,0,VALID,97.0003,VALID,0,VALID,19.9743,VALID,41,VALID,1.1793,
2010-10-25, 00:38:04,VALID,917.379,VALID,0,VALID,97.0232,VALID,0,VALID,19.9758,VALID,75,VALID,0.958984,
2010-10-25, 00:39:04,VALID,917.379,VALID,0,VALID,97.0156,VALID,0,VALID,19.9548,VALID,75,VALID,1.23438,
2010-10-25, 00:40:04,VALID,917.412,VALID,0,VALID,97.0003,VALID,0,VALID,19.9158,VALID,75,VALID,0.512891,
2010-10-25, 00:41:04,VALID,917.438,VALID,0,VALID,96.9927,VALID,0,VALID,19.8963,VALID,75,VALID,0.413672,
2010-10-25, 00:42:04,VALID,917.427,VALID,0,VALID,96.9775,VALID,0,VALID,19.8573,VALID,32,VALID,1.08281,
2010-10-25, 00:43:04,VALID,917.439,VALID,0,VALID,97.0766,VALID,0,VALID,19.8783,VALID,32,VALID,0.312891,
2010-10-25, 00:44:04,VALID,917.491,VALID,0,VALID,97.0385,VALID,0,VALID,19.8783,VALID,44,VALID,1.30469,
2010-10-25, 00:45:04,VALID,917.476,VALID,0,VALID,96.9546,VALID,0,VALID,19.8003,VALID,50,VALID,1.28398,
2010-10-25, 00:46:04,VALID,917.484,VALID,0,VALID,96.9089,VALID,0,VALID,19.7208,VALID,21,VALID,1.79062,
2010-10-25, 00:47:04,VALID,917.483,VALID,0,VALID,97.008,VALID,0,VALID,19.6818,VALID,46,VALID,1.21797,
2010-10-25, 00:48:04,VALID,917.442,VALID,0,VALID,96.9317,VALID,0,VALID,19.6833,VALID,51,VALID,1.93359,
2010-10-25, 00:49:04,VALID,917.492,VALID,0,VALID,97.0156,VALID,0,VALID,19.6638,VALID,36,VALID,1.33086,
2010-10-25, 00:50:04,VALID,917.466,VALID,0,VALID,96.9775,VALID,0,VALID,19.6038,VALID,49,VALID,1.29609,
2010-10-25, 00:51:04,VALID,917.479,VALID,0,VALID,97.0613,VALID,0,VALID,19.6248,VALID,18,VALID,1.18242,
2010-10-25, 00:52:04,VALID,917.514,VALID,0,VALID,97.0537,VALID,0,VALID,19.5453,VALID,2,VALID,1.2875,
2010-10-25, 00:53:04,VALID,917.419,VALID,0,VALID,97.1147,VALID,0,VALID,19.6263,VALID,35,VALID,2.64961,
2010-10-25, 00:54:04,VALID,917.413,VALID,0,VALID,96.9851,VALID,0,VALID,19.5468,VALID,35,VALID,2.41406,
2010-10-25, 00:55:04,VALID,917.376,VALID,0,VALID,96.9698,VALID,0,VALID,19.4883,VALID,42,VALID,2.40391,
2010-10-25, 00:56:04,VALID,917.385,VALID,0,VALID,96.9698,VALID,0,VALID,19.4478,VALID,32,VALID,1.68984,
2010-10-25, 00:57:04,VALID,917.396,VALID,0,VALID,97.0385,VALID,0,VALID,19.3893,VALID,32,VALID,2.70156,
2010-10-25, 00:58:04,VALID,917.393,VALID,0,VALID,96.9775,VALID,0,VALID,19.3713,VALID,36,VALID,2.14727,
2010-10-25, 00:59:04,VALID,917.398,VALID,0,VALID,97.0994,VALID,0,VALID,19.3503,VALID,36,VALID,1.03398,
2010-10-25, 01:00:04,VALID,917.417,VALID,0,VALID,97.1147,VALID,0,VALID,19.3503,VALID,36,VALID,0.421484,
2010-10-25, 01:01:04,VALID,917.376,VALID,0,VALID,97.0994,VALID,0,VALID,19.3518,VALID,36,VALID,1.01953,
2010-10-25, 01:02:04,VALID,917.371,VALID,0,VALID,97.0003,VALID,0,VALID,19.3128,VALID,38,VALID,2.21328,
2010-10-25, 01:03:04,VALID,917.382,VALID,0,VALID,97.0842,VALID,0,VALID,19.2723,VALID,352,VALID,1.35,
2010-10-25, 01:04:04,VALID,917.371,VALID,0,VALID,97.0842,VALID,0,VALID,19.2334,VALID,35,VALID,2.08516,
2010-10-25, 01:05:04,VALID,917.357,VALID,0,VALID,97.0842,VALID,0,VALID,19.1944,VALID,22,VALID,0.891016,
2010-10-25, 01:06:04,VALID,917.348,VALID,0,VALID,97.1071,VALID,0,VALID,19.1944,VALID,352,VALID,1.60625,
2010-10-25, 01:07:04,VALID,917.307,VALID,0,VALID,97.1528,VALID,0,VALID,19.2139,VALID,28,VALID,1.73672,
2010-10-25, 01:08:04,VALID,917.301,VALID,0,VALID,97.1071,VALID,0,VALID,19.1944,VALID,35,VALID,1.15,
2010-10-25, 01:09:04,VALID,917.29,VALID,0,VALID,97.1223,VALID,0,VALID,19.1568,VALID,33,VALID,1.87344,
2010-10-25, 01:10:04,VALID,917.325,VALID,0,VALID,97.1757,VALID,0,VALID,19.2153,VALID,28,VALID,1.93008,
2010-10-25, 01:11:04,VALID,917.334,VALID,0,VALID,97.1909,VALID,0,VALID,19.2348,VALID,34,VALID,1.85586,
2010-10-25, 01:12:04,VALID,917.318,VALID,0,VALID,97.1299,VALID,0,VALID,19.1749,VALID,34,VALID,1.69453,
2010-10-25, 01:13:04,VALID,917.305,VALID,0,VALID,97.0842,VALID,0,VALID,19.1568,VALID,23,VALID,1.63516,
2010-10-25, 01:14:04,VALID,917.295,VALID,0,VALID,97.0918,VALID,0,VALID,19.0969,VALID,22,VALID,1.96563,
2010-10-25, 01:15:04,VALID,917.27,VALID,0,VALID,97.1376,VALID,0,VALID,19.1373,VALID,22,VALID,1.775,
2010-10-25, 01:16:04,VALID,917.301,VALID,0,VALID,97.1833,VALID,0,VALID,19.1568,VALID,27,VALID,0.819531,
2010-10-25, 01:17:04,VALID,917.271,VALID,0,VALID,97.0613,VALID,0,VALID,19.0983,VALID,34,VALID,1.84844,
2010-10-25, 01:18:04,VALID,917.23,VALID,0,VALID,96.9546,VALID,0,VALID,19.0203,VALID,355,VALID,2.40977,
2010-10-25, 01:19:04,VALID,917.252,VALID,0,VALID,96.9698,VALID,0,VALID,18.9814,VALID,18,VALID,1.92578,
2010-10-25, 01:20:04,VALID,917.262,VALID,0,VALID,97.0156,VALID,0,VALID,18.9619,VALID,18,VALID,1.68594,
2010-10-25, 01:21:04,VALID,917.24,VALID,0,VALID,96.9622,VALID,0,VALID,18.9619,VALID,348,VALID,1.16641,
2010-10-25, 01:22:04,VALID,917.261,VALID,0,VALID,97.0461,VALID,0,VALID,18.9229,VALID,2,VALID,0.807031,
2010-10-25, 01:23:04,VALID,917.226,VALID,0,VALID,97.0461,VALID,0,VALID,18.9424,VALID,345,VALID,0.844922,
2010-10-25, 01:24:04,VALID,917.235,VALID,0,VALID,96.9775,VALID,0,VALID,18.9034,VALID,10,VALID,1.19805,
2010-10-25, 01:25:04,VALID,917.22,VALID,0,VALID,97.0003,VALID,0,VALID,18.8839,VALID,5,VALID,1.36523,
2010-10-25, 01:26:04,VALID,917.197,VALID,0,VALID,97.0385,VALID,0,VALID,18.9229,VALID,21,VALID,1.74844,
2010-10-25, 01:27:04,VALID,917.177,VALID,0,VALID,96.9241,VALID,0,VALID,18.8839,VALID,16,VALID,2.20156,
2010-10-25, 01:28:04,VALID,917.154,VALID,0,VALID,96.9165,VALID,0,VALID,18.8449,VALID,2,VALID,1.78711,
2010-10-25, 01:29:04,VALID,917.141,VALID,0.2,VALID,96.8555,VALID,0,VALID,18.785,VALID,347,VALID,1.76406,
2010-10-25, 01:30:04,VALID,917.168,VALID,0,VALID,96.8707,VALID,0,VALID,18.785,VALID,347,VALID,1.32578,
2010-10-25, 01:31:04,VALID,917.13,VALID,0,VALID,96.9012,VALID,0,VALID,18.785,VALID,345,VALID,1.86133,
2010-10-25, 01:32:04,VALID,917.117,VALID,0,VALID,96.9089,VALID,0,VALID,18.764,VALID,3,VALID,1.96172,
2010-10-25, 01:33:04,VALID,917.155,VALID,0,VALID,96.9775,VALID,0,VALID,18.785,VALID,6,VALID,2.32773,
2010-10-25, 01:34:04,VALID,917.112,VALID,0,VALID,96.947,VALID,0.107441,VALID,18.7655,VALID,34,VALID,2.15469,
2010-10-25, 01:35:04,VALID,917.093,VALID,0,VALID,96.9927,VALID,0.107441,VALID,18.785,VALID,34,VALID,2.14141,
2010-10-25, 01:36:04,VALID,917.066,VALID,0,VALID,96.825,VALID,0,VALID,18.707,VALID,358,VALID,2.06055,
2010-10-25, 01:37:04,VALID,917.097,VALID,0,VALID,96.9317,VALID,0,VALID,18.6875,VALID,13,VALID,1.28164,
2010-10-25, 01:38:04,VALID,917.088,VALID,0,VALID,96.825,VALID,0,VALID,18.6095,VALID,14,VALID,2.03555,
2010-10-25, 01:39:04,VALID,917.096,VALID,0,VALID,96.8631,VALID,0,VALID,18.5705,VALID,353,VALID,1.81094,
2010-10-25, 01:40:04,VALID,917.052,VALID,0,VALID,96.825,VALID,0,VALID,18.4926,VALID,341,VALID,2.35273,
2010-10-25, 01:41:04,VALID,917.067,VALID,0,VALID,96.9546,VALID,0,VALID,18.4926,VALID,10,VALID,1.98672,
2010-10-25, 01:42:04,VALID,917.05,VALID,0,VALID,96.9012,VALID,0,VALID,18.4146,VALID,10,VALID,1.9082,
2010-10-25, 01:43:04,VALID,916.997,VALID,0,VALID,97.0308,VALID,0,VALID,18.4341,VALID,23,VALID,1.61641,
2010-10-25, 01:44:04,VALID,916.975,VALID,0,VALID,97.0613,VALID,0,VALID,18.4355,VALID,43,VALID,1.50937,
2010-10-25, 01:45:04,VALID,916.979,VALID,0,VALID,97.0232,VALID,0,VALID,18.455,VALID,3,VALID,1.75234,
2010-10-25, 01:46:04,VALID,916.96,VALID,0,VALID,96.9698,VALID,0,VALID,18.3756,VALID,12,VALID,2.10586,
2010-10-25, 01:47:04,VALID,916.955,VALID,0,VALID,97.1147,VALID,0,VALID,18.416,VALID,21,VALID,1.76523,
2010-10-25, 01:48:04,VALID,916.914,VALID,0,VALID,97.0613,VALID,0,VALID,18.377,VALID,22,VALID,1.6082,
2010-10-25, 01:49:04,VALID,916.928,VALID,0.2,VALID,97.0156,VALID,0,VALID,18.3575,VALID,21,VALID,2.09687,
2010-10-25, 01:50:04,VALID,916.908,VALID,0,VALID,97.1071,VALID,0,VALID,18.3575,VALID,24,VALID,2.74727,
2010-10-25, 01:51:04,VALID,916.913,VALID,0,VALID,97.0918,VALID,0,VALID,18.3185,VALID,1,VALID,1.69492,
2010-10-25, 01:52:04,VALID,916.878,VALID,0,VALID,97.1452,VALID,0,VALID,18.3185,VALID,9,VALID,1.86289,
2010-10-25, 01:53:04,VALID,916.877,VALID,0,VALID,97.1147,VALID,0,VALID,18.3185,VALID,304,VALID,1.75391,
2010-10-25, 01:54:04,VALID,916.859,VALID,0,VALID,97.1681,VALID,0,VALID,18.299,VALID,11,VALID,1.93984,
2010-10-25, 01:55:04,VALID,916.84,VALID,0,VALID,97.1528,VALID,0,VALID,18.3185,VALID,21,VALID,1.33477,
2010-10-25, 01:56:04,VALID,916.842,VALID,0,VALID,97.1452,VALID,0,VALID,18.3199,VALID,25,VALID,2.11523,
2010-10-25, 01:57:04,VALID,916.815,VALID,0,VALID,97.1299,VALID,0,VALID,18.299,VALID,17,VALID,1.66719,
2010-10-25, 01:58:04,VALID,916.787,VALID,0,VALID,97.2138,VALID,0,VALID,18.3172,VALID,1,VALID,1.44648,
2010-10-25, 01:59:04,VALID,916.767,VALID,0,VALID,97.1223,VALID,0.107441,VALID,18.2782,VALID,20,VALID,1.50273,
2010-10-25, 02:00:04,VALID,916.727,VALID,0,VALID,97.1376,VALID,0,VALID,18.2782,VALID,7,VALID,1.76719,
2010-10-25, 02:01:04,VALID,916.744,VALID,0,VALID,97.229,VALID,0,VALID,18.2782,VALID,44,VALID,1.40391,
2010-10-25, 02:02:04,VALID,916.716,VALID,0,VALID,97.1757,VALID,0,VALID,18.3185,VALID,8,VALID,1.80117,
2010-10-25, 02:03:04,VALID,916.683,VALID,0,VALID,97.1833,VALID,0,VALID,18.2782,VALID,20,VALID,1.35742,
2010-10-25, 02:04:04,VALID,916.652,VALID,0,VALID,97.1223,VALID,0,VALID,18.2587,VALID,16,VALID,1.73594,
2010-10-25, 02:05:04,VALID,916.629,VALID,0,VALID,97.0994,VALID,0,VALID,18.2197,VALID,16,VALID,1.61406,
2010-10-25, 02:06:04,VALID,916.64,VALID,0,VALID,97.1681,VALID,0,VALID,18.2392,VALID,10,VALID,1.78242,
2010-10-25, 02:07:04,VALID,916.598,VALID,0,VALID,97.1604,VALID,0,VALID,18.2796,VALID,14,VALID,1.7,
2010-10-25, 02:08:04,VALID,916.56,VALID,0,VALID,97.1604,VALID,0,VALID,18.2392,VALID,14,VALID,1.47539,
2010-10-25, 02:09:04,VALID,916.534,VALID,0,VALID,97.1376,VALID,0,VALID,18.2392,VALID,8,VALID,2.01289,
2010-10-25, 02:10:04,VALID,916.551,VALID,0,VALID,97.2062,VALID,0,VALID,18.2587,VALID,4,VALID,1.4,
2010-10-25, 02:11:04,VALID,916.511,VALID,0,VALID,97.2214,VALID,0,VALID,18.2587,VALID,3,VALID,0.853906,
2010-10-25, 02:12:04,VALID,916.513,VALID,0,VALID,97.2062,VALID,0,VALID,18.2782,VALID,18,VALID,1.00156,
2010-10-25, 02:13:04,VALID,916.478,VALID,0,VALID,97.2062,VALID,0,VALID,18.338,VALID,360,VALID,1.3207,
2010-10-25, 02:14:04,VALID,916.442,VALID,0,VALID,97.1452,VALID,0,VALID,18.2782,VALID,359,VALID,1.51602,
2010-10-25, 02:15:04,VALID,916.419,VALID,0,VALID,97.1452,VALID,0,VALID,18.299,VALID,352,VALID,2.06875,
2010-10-25, 02:16:04,VALID,916.416,VALID,0,VALID,97.2062,VALID,0,VALID,18.338,VALID,329,VALID,1.55273,
2010-10-25, 02:17:04,VALID,916.374,VALID,0,VALID,97.2138,VALID,0,VALID,18.338,VALID,331,VALID,0.733594,
2010-10-25, 02:18:04,VALID,916.307,VALID,0,VALID,97.1986,VALID,0,VALID,18.338,VALID,5,VALID,1.21875,
2010-10-25, 02:19:04,VALID,916.323,VALID,0,VALID,97.1376,VALID,0,VALID,18.2977,VALID,354,VALID,1.32109,
2010-10-25, 02:20:04,VALID,916.329,VALID,0,VALID,97.1757,VALID,0,VALID,18.299,VALID,335,VALID,1.06172,
2010-10-25, 02:21:04,VALID,916.263,VALID,0,VALID,97.1757,VALID,0,VALID,18.2782,VALID,335,VALID,0.776953,
2010-10-25, 02:22:04,VALID,916.254,VALID,0,VALID,97.2062,VALID,0,VALID,18.338,VALID,335,VALID,0.951563,
2010-10-25, 02:23:04,VALID,916.228,VALID,0,VALID,97.1528,VALID,0,VALID,18.3185,VALID,336,VALID,1.21875,
2010-10-25, 02:24:04,VALID,916.219,VALID,0,VALID,97.1604,VALID,0,VALID,18.2782,VALID,336,VALID,0.946094,
2010-10-25, 02:25:04,VALID,916.222,VALID,0,VALID,97.1528,VALID,0,VALID,18.299,VALID,28,VALID,1.18086,
2010-10-25, 02:26:04,VALID,916.19,VALID,0,VALID,97.0918,VALID,0,VALID,18.2392,VALID,3,VALID,0.912891,
2010-10-25, 02:27:04,VALID,916.139,VALID,0,VALID,97.1833,VALID,0,VALID,18.299,VALID,2,VALID,0.440625,
2010-10-25, 02:28:04,VALID,916.13,VALID,0,VALID,97.1223,VALID,0,VALID,18.2782,VALID,2,VALID,1.1668,
2010-10-25, 02:29:04,VALID,916.125,VALID,0,VALID,97.0918,VALID,0,VALID,18.2392,VALID,2,VALID,0.552734,
2010-10-25, 02:30:04,VALID,916.093,VALID,0,VALID,97.1452,VALID,0,VALID,18.2796,VALID,2,VALID,0.922266,
2010-10-25, 02:31:04,VALID,916.066,VALID,0,VALID,97.069,VALID,0,VALID,18.2406,VALID,4,VALID,1.16211,
2010-10-25, 02:32:04,VALID,916.068,VALID,0,VALID,97.1604,VALID,0,VALID,18.2587,VALID,11,VALID,0.833594,
2010-10-25, 02:33:04,VALID,916.009,VALID,0,VALID,97.1528,VALID,0,VALID,18.299,VALID,11,VALID,0.626172,
2010-10-25, 02:34:04,VALID,915.976,VALID,0,VALID,97.0613,VALID,0,VALID,18.2782,VALID,5,VALID,1.22617,
2010-10-25, 02:35:04,VALID,915.968,VALID,0,VALID,97.0385,VALID,0,VALID,18.2601,VALID,5,VALID,0.749609,
2010-10-25, 02:36:04,VALID,915.933,VALID,0,VALID,97.069,VALID,0,VALID,18.2796,VALID,5,VALID,0.480859,
2010-10-25, 02:37:04,VALID,915.914,VALID,0,VALID,97.0766,VALID,0,VALID,18.2587,VALID,5,VALID,0.490625,
2010-10-25, 02:38:04,VALID,915.916,VALID,0,VALID,97.0537,VALID,0,VALID,18.2587,VALID,5,VALID,0.853516,
2010-10-25, 02:39:04,VALID,915.896,VALID,0.2,VALID,97.0003,VALID,0,VALID,18.2587,VALID,4,VALID,0.892187,
2010-10-25, 02:40:04,VALID,915.896,VALID,0,VALID,96.9698,VALID,0,VALID,18.2601,VALID,4,VALID,1.1582,
2010-10-25, 02:41:04,VALID,915.853,VALID,0,VALID,96.9317,VALID,0,VALID,18.2406,VALID,4,VALID,1.62852,
2010-10-25, 02:42:04,VALID,915.852,VALID,0,VALID,96.886,VALID,0,VALID,18.2406,VALID,4,VALID,0.987891,
2010-10-25, 02:43:04,VALID,915.853,VALID,0,VALID,96.9241,VALID,0,VALID,18.2197,VALID,4,VALID,0.871094,
2010-10-25, 02:44:04,VALID,915.845,VALID,0,VALID,96.9317,VALID,0,VALID,18.2601,VALID,327,VALID,0.689844,
2010-10-25, 02:45:04,VALID,915.852,VALID,0,VALID,96.8936,VALID,0,VALID,18.2406,VALID,327,VALID,0.527344,
2010-10-25, 02:46:04,VALID,915.842,VALID,0,VALID,96.8784,VALID,0,VALID,18.2197,VALID,327,VALID,0.7375,
2010-10-25, 02:47:04,VALID,915.824,VALID,0,VALID,96.9012,VALID,0,VALID,18.2601,VALID,327,VALID,0.553516,
2010-10-25, 02:48:04,VALID,915.816,VALID,0,VALID,96.9317,VALID,0,VALID,18.2392,VALID,327,VALID,0.521094,
2010-10-25, 02:49:05,VALID,915.819,VALID,0,VALID,96.8707,VALID,0,VALID,18.2601,VALID,327,VALID,0.485938,
2010-10-25, 02:50:05,VALID,915.799,VALID,0,VALID,96.9546,VALID,0,VALID,18.2796,VALID,327,VALID,0.444141,
2010-10-25, 02:51:05,VALID,915.788,VALID,0,VALID,96.9775,VALID,0,VALID,18.3172,VALID,327,VALID,0.490625,
2010-10-25, 02:52:05,VALID,915.783,VALID,0,VALID,96.8936,VALID,0,VALID,18.2977,VALID,327,VALID,0.652734,
2010-10-25, 02:53:05,VALID,915.735,VALID,0,VALID,96.8326,VALID,0,VALID,18.299,VALID,327,VALID,0.8625,
2010-10-25, 02:54:05,VALID,915.737,VALID,0,VALID,96.8174,VALID,0,VALID,18.2796,VALID,327,VALID,0.865625,
2010-10-25, 02:55:05,VALID,915.708,VALID,0,VALID,96.7793,VALID,0,VALID,18.2406,VALID,327,VALID,0.439063,
2010-10-25, 02:56:05,VALID,915.731,VALID,0,VALID,96.7716,VALID,0,VALID,18.2406,VALID,327,VALID,0.541797,
2010-10-25, 02:57:05,VALID,915.713,VALID,0,VALID,96.7411,VALID,0,VALID,18.2406,VALID,327,VALID,0.559375,
2010-10-25, 02:58:05,VALID,915.701,VALID,0,VALID,96.7564,VALID,0,VALID,18.2197,VALID,327,VALID,0.514453,
2010-10-25, 02:59:05,VALID,915.687,VALID,0,VALID,96.7488,VALID,0,VALID,18.2406,VALID,327,VALID,0.522656,
2010-10-25, 03:00:05,VALID,915.705,VALID,0,VALID,96.7869,VALID,0,VALID,18.2601,VALID,327,VALID,0.358594,
2010-10-25, 03:01:05,VALID,915.671,VALID,0,VALID,96.7793,VALID,0,VALID,18.2796,VALID,327,VALID,0.525391,
2010-10-25, 03:02:05,VALID,915.655,VALID,0,VALID,96.764,VALID,0,VALID,18.2796,VALID,327,VALID,0.071875,
2010-10-25, 03:03:05,VALID,915.622,VALID,0,VALID,96.7793,VALID,0,VALID,18.3185,VALID,327,VALID,0.477734,
2010-10-25, 03:04:05,VALID,915.64,VALID,0,VALID,96.8098,VALID,0,VALID,18.3172,VALID,327,VALID,0,
2010-10-25, 03:05:05,VALID,915.615,VALID,0,VALID,96.8021,VALID,0,VALID,18.3366,VALID,327,VALID,0.306641,
2010-10-25, 03:06:05,VALID,915.599,VALID,0,VALID,96.7488,VALID,0,VALID,18.338,VALID,327,VALID,0.227734,
2010-10-25, 03:07:05,VALID,915.581,VALID,0,VALID,96.7335,VALID,0,VALID,18.3185,VALID,327,VALID,0.222266,
2010-10-25, 03:08:05,VALID,915.6,VALID,0,VALID,96.764,VALID,0,VALID,18.2768,VALID,327,VALID,0,
2010-10-25, 03:09:05,VALID,915.592,VALID,0,VALID,96.7488,VALID,0,VALID,18.2782,VALID,327,VALID,0,
2010-10-25, 03:10:05,VALID,915.588,VALID,0,VALID,96.764,VALID,0,VALID,18.299,VALID,327,VALID,0,
2010-10-25, 03:11:05,VALID,915.557,VALID,0,VALID,96.7869,VALID,0,VALID,18.2782,VALID,327,VALID,0,
2010-10-25, 03:12:05,VALID,915.558,VALID,0,VALID,96.7945,VALID,0,VALID,18.299,VALID,327,VALID,0,
2010-10-25, 03:13:05,VALID,915.55,VALID,0,VALID,96.8098,VALID,0,VALID,18.299,VALID,327,VALID,0,
2010-10-25, 03:14:05,VALID,915.555,VALID,0,VALID,96.7716,VALID,0,VALID,18.2796,VALID,327,VALID,0,
2010-10-25, 03:15:05,VALID,915.507,VALID,0,VALID,96.7335,VALID,0,VALID,18.2601,VALID,327,VALID,0,
2010-10-25, 03:16:05,VALID,915.555,VALID,0,VALID,96.7488,VALID,0,VALID,18.2601,VALID,327,VALID,0.13125,
2010-10-25, 03:17:05,VALID,915.53,VALID,0,VALID,96.8174,VALID,0,VALID,18.2406,VALID,327,VALID,0.0199219,
2010-10-25, 03:18:05,VALID,915.545,VALID,0,VALID,96.8479,VALID,0,VALID,18.2392,VALID,327,VALID,0.194922,
2010-10-25, 03:19:05,VALID,915.49,VALID,0,VALID,96.825,VALID,0,VALID,18.2601,VALID,327,VALID,0.175,
2010-10-25, 03:20:05,VALID,915.525,VALID,0,VALID,96.8326,VALID,0,VALID,18.2197,VALID,327,VALID,0.258203,
2010-10-25, 03:21:05,VALID,915.509,VALID,0,VALID,96.7869,VALID,0,VALID,18.2016,VALID,327,VALID,0.408594,
2010-10-25, 03:22:05,VALID,915.494,VALID,0,VALID,96.7869,VALID,0,VALID,18.1821,VALID,327,VALID,0.455078,
2010-10-25, 03:23:05,VALID,915.497,VALID,0,VALID,96.8403,VALID,0,VALID,18.1612,VALID,327,VALID,0.675781,
2010-10-25, 03:24:05,VALID,915.46,VALID,0,VALID,96.8403,VALID,0,VALID,18.1612,VALID,327,VALID,0.758203,
2010-10-25, 03:25:05,VALID,915.475,VALID,0,VALID,96.886,VALID,0,VALID,18.1626,VALID,327,VALID,0.429297,
2010-10-25, 03:26:05,VALID,915.465,VALID,0,VALID,96.9546,VALID,0,VALID,18.1612,VALID,327,VALID,0.279297,
2010-10-25, 03:27:05,VALID,915.473,VALID,0,VALID,96.9851,VALID,0,VALID,18.2211,VALID,327,VALID,0.347656,
2010-10-25, 03:28:05,VALID,915.432,VALID,0,VALID,96.9698,VALID,0,VALID,18.2211,VALID,327,VALID,0.385547,
2010-10-25, 03:29:05,VALID,915.464,VALID,0,VALID,96.9622,VALID,0,VALID,18.2016,VALID,327,VALID,0.433203,
2010-10-25, 03:30:05,VALID,915.461,VALID,0,VALID,96.9775,VALID,0,VALID,18.2211,VALID,327,VALID,0.184766,
2010-10-25, 03:31:05,VALID,915.425,VALID,0,VALID,97.008,VALID,0,VALID,18.2002,VALID,327,VALID,0.30625,
2010-10-25, 03:32:05,VALID,915.439,VALID,0,VALID,97.008,VALID,0,VALID,18.2016,VALID,327,VALID,0.364062,
2010-10-25, 03:33:05,VALID,915.45,VALID,0,VALID,97.0308,VALID,0,VALID,18.2016,VALID,327,VALID,0.05625,
2010-10-25, 03:34:05,VALID,915.451,VALID,0,VALID,97.0537,VALID,0,VALID,18.2211,VALID,327,VALID,0,
2010-10-25, 03:35:05,VALID,915.493,VALID,0,VALID,97.0461,VALID,0,VALID,18.2002,VALID,327,VALID,0,
2010-10-25, 03:36:05,VALID,915.439,VALID,0,VALID,97.0613,VALID,0,VALID,18.2002,VALID,327,VALID,0,
2010-10-25, 03:37:05,VALID,915.454,VALID,0,VALID,97.0385,VALID,0,VALID,18.2211,VALID,327,VALID,0.10625,
2010-10-25, 03:38:05,VALID,915.44,VALID,0,VALID,97.0385,VALID,0,VALID,18.1612,VALID,327,VALID,0.341797,
2010-10-25, 03:39:05,VALID,915.438,VALID,0,VALID,97.008,VALID,0,VALID,18.1431,VALID,327,VALID,0.255469,
2010-10-25, 03:40:05,VALID,915.432,VALID,0,VALID,97.0537,VALID,0,VALID,18.1626,VALID,327,VALID,0.0046875,
2010-10-25, 03:41:05,VALID,915.408,VALID,0,VALID,97.0156,VALID,0,VALID,18.1222,VALID,327,VALID,0,
2010-10-25, 03:42:05,VALID,915.383,VALID,0,VALID,97.0461,VALID,0,VALID,18.1236,VALID,327,VALID,0,
2010-10-25, 03:43:05,VALID,915.408,VALID,0,VALID,97.0918,VALID,0,VALID,18.1431,VALID,327,VALID,0,
2010-10-25, 03:44:05,VALID,915.377,VALID,0,VALID,97.0842,VALID,0,VALID,18.1236,VALID,327,VALID,0,
2010-10-25, 03:45:05,VALID,915.382,VALID,0,VALID,97.0613,VALID,0,VALID,18.1236,VALID,327,VALID,0,
2010-10-25, 03:46:05,VALID,915.362,VALID,0,VALID,97.1071,VALID,0,VALID,18.1041,VALID,327,VALID,0,
2010-10-25, 03:47:05,VALID,915.392,VALID,0,VALID,97.1223,VALID,0,VALID,18.1431,VALID,327,VALID,0,
2010-10-25, 03:48:05,VALID,915.345,VALID,0,VALID,97.0994,VALID,0,VALID,18.1445,VALID,327,VALID,0,